Conneaut, OH (44030)

9:19 PM EDT on April 30, 2017 (GMT -0400)
MCBLO1 | | Change Station

Elev 570 ft 41.98 °N, 80.56 °W | Updated 49 minutes ago

Scattered Clouds
Scattered Clouds
50.0 °F
Feels Like 43 °F
N
22.0
Wind Variable Wind from ENE
Gusts 26.0 mph

Today
High -- | Low -- °F
--% Chance of Precip.
Yesterday
High -- | Low -- °F
Precip. -- in
Pressure 29.85 in
Visibility 10.0 miles
Clouds Scattered Clouds 7000 ft
Scattered Clouds 11000 ft
Windchill 43 °F
Dew Point Not available.
Humidity Not available.
Rainfall in
Snow Depth Not available.
6:19 AM 8:20 PM
Waxing Crescent, 28% visible
METAR KHZY 010053Z AUTO 00000KT 10SM SCT070 SCT110 17/15 A2985 RMK AO2 SLP106 T01670150 TSNO
Pressure 29.85 in
Visibility 10.0 miles
Clouds Scattered Clouds 7000 ft
Scattered Clouds 11000 ft
Windchill 43 °F
Dew Point Not available.
Humidity Not available.
Rainfall in
Snow Depth Not available.
6:19 AM 8:20 PM
Waxing Crescent, 28% visible
METAR KHZY 010053Z AUTO 00000KT 10SM SCT070 SCT110 17/15 A2985 RMK AO2 SLP106 T01670150 TSNO

Get Severe Weather Alerts

Thanks for signing up!

Be on the lookout for a verification email in your inbox.

You'll start receiving the daily forecast at 8 AM.

×

10-Day Weather Forecast

Almanac

Astronomy

Apr. 30, 2017 Rise Set
Actual Time
Civil Twilight
Nautical Twilight
Astronomical Twilight
Moon
Length of Visible Light
Length of Day
Tomorrow will be .
, % of the Moon is Illuminated

Today's Extremes

State Highs State Lows

Community

WunderPhotos

WunderBlog® & News

Nearby

Air Quality

  Air Quality AQ Index Pollutant
Not available.

Snow Depth

Station Depth Elevation

Earthquake Activity

City Distance Mag. Time & Date
Minimum magnitude displayed is 2.5.

Coastal Water Temperatures

Place Temperature

Stations

Nearby Weather Stations

Station Location Temp. Windchill Dew Point Humidity Wind Precip. Elev Updated Type
                   

Watches & Warnings

There are currently no watches in effect.